Location: Newark
(50.0306°N, 2.3272°E)
Time: 14:23:55
(UTC+00:00)

Vanguard 1 - Pass Details

Date: 16 December 2019
Orbit: 651 x 3832 km, 34.2° (Epoch: 17 January)

Event Time Altitude Azimuth Distance (km) Brightness Sun altitude
Exits shadow 05:08:02 17° 246° (WSW) 6,289 13.6 -23.6°
Maximum altitude 05:26:18 50° 185° (S) 4,187 13.2 -20.7°
Drops below altitude 10° 05:43:04 10° 117° (ESE) 5,412 15.0 -18.1°
Sets 05:46:39 0° 112° (ESE) 6,064 15.8 -17.6°
